User: anonymous
Location: Brno
(49.2000°N, 16.6330°E)
Time: 12:08:56
(UTC+02:00)
Language:

Iridium 2 - Orbit

View from above orbital plane
View from above orbital plane
View from above satellite
View from above satellite

Ground track
Ground track

The orbit data is extracted from the following two-line orbital elements,

1 25527U 98066A   14232.24223791  .00001800  00000-0  11456-3 0  3298
2 25527 085.5307 278.5033 0007587 258.9196 147.9741 15.08082757861782
Epoch (UTC): 20 August 2014 05:48:49
Eccentricity: 0.0007587
inclination: 85.5307°
perigee height: 537 km
apogee height: 547 km
right ascension of ascending node: 278.5033°
argument of perigee: 258.9196°
revolutions per day: 15.08082757
mean anomaly at epoch: 147.9741°
orbit number at epoch: 86178

The dashed part of the orbit path shows where the satellite is in the earth's shadow,  

DLR